Year,Month,Day,Hour,Minute,Value (Times are PST for insolation in W/m^2)
2021,12,19,00,00,0.00
2021,12,19,00,01,0.00
2021,12,19,00,02,0.00
2021,12,19,00,03,0.00
2021,12,19,00,04,0.00
2021,12,19,00,05,0.00
2021,12,19,00,06,0.00
2021,12,19,00,07,0.00
2021,12,19,00,08,0.00
2021,12,19,00,09,0.00
2021,12,19,00,10,0.00
2021,12,19,00,11,0.00
2021,12,19,00,12,0.00
2021,12,19,00,13,0.00
2021,12,19,00,14,0.00
2021,12,19,00,15,0.00
2021,12,19,00,16,0.00
2021,12,19,00,17,0.00
2021,12,19,00,18,0.00
2021,12,19,00,19,0.00
2021,12,19,00,20,0.00
2021,12,19,00,21,0.00
2021,12,19,00,22,0.00
2021,12,19,00,23,0.00
2021,12,19,00,24,0.00
2021,12,19,00,25,0.00
2021,12,19,00,26,0.00
2021,12,19,00,27,0.00
2021,12,19,00,28,0.00
2021,12,19,00,29,0.00
2021,12,19,00,30,0.00
2021,12,19,00,31,0.00
2021,12,19,00,32,0.00
2021,12,19,00,33,0.00
2021,12,19,00,34,0.00
2021,12,19,00,35,0.00
2021,12,19,00,36,0.00
2021,12,19,00,37,0.00
2021,12,19,00,38,0.00
2021,12,19,00,39,0.00
2021,12,19,00,40,0.00
2021,12,19,00,41,0.00
2021,12,19,00,42,0.00
2021,12,19,00,43,0.00
2021,12,19,00,44,0.00
2021,12,19,00,45,0.00
2021,12,19,00,46,0.00
2021,12,19,00,47,0.00
2021,12,19,00,48,0.00
2021,12,19,00,49,0.00
2021,12,19,00,50,0.00
2021,12,19,00,51,0.00
2021,12,19,00,52,0.00
2021,12,19,00,53,0.00
2021,12,19,00,54,0.00
2021,12,19,00,55,0.00
2021,12,19,00,56,0.00
2021,12,19,00,57,0.00
2021,12,19,00,58,0.00
2021,12,19,00,59,0.00
2021,12,19,01,00,0.00
2021,12,19,01,01,0.00
2021,12,19,01,02,0.00
2021,12,19,01,03,0.00
2021,12,19,01,04,0.00
2021,12,19,01,05,0.00
2021,12,19,01,06,0.00
2021,12,19,01,07,0.00
2021,12,19,01,08,0.00
2021,12,19,01,09,0.00
2021,12,19,01,10,0.00
2021,12,19,01,11,0.00
2021,12,19,01,12,0.00
2021,12,19,01,13,0.00
2021,12,19,01,14,0.00
2021,12,19,01,15,0.00
2021,12,19,01,16,0.00
2021,12,19,01,17,0.00
2021,12,19,01,18,0.00
2021,12,19,01,19,0.00
2021,12,19,01,20,0.00
2021,12,19,01,21,0.00
2021,12,19,01,22,0.00
2021,12,19,01,23,0.00
2021,12,19,01,24,0.00
2021,12,19,01,25,0.00
2021,12,19,01,26,0.00
2021,12,19,01,27,0.00
2021,12,19,01,28,0.00
2021,12,19,01,29,0.00
2021,12,19,01,30,0.00
2021,12,19,01,31,0.00
2021,12,19,01,32,0.00
2021,12,19,01,33,0.00
2021,12,19,01,34,0.00
2021,12,19,01,35,0.00
2021,12,19,01,36,0.00
2021,12,19,01,37,0.00
2021,12,19,01,38,0.00
2021,12,19,01,39,0.00
2021,12,19,01,40,0.00
2021,12,19,01,41,0.00
2021,12,19,01,42,0.00
2021,12,19,01,43,0.00
2021,12,19,01,44,0.00
2021,12,19,01,45,0.00
2021,12,19,01,46,0.00
2021,12,19,01,47,0.00
2021,12,19,01,48,0.00
2021,12,19,01,49,0.00
2021,12,19,01,50,0.00
2021,12,19,01,51,0.00
2021,12,19,01,52,0.00
2021,12,19,01,53,0.00
2021,12,19,01,54,0.00
2021,12,19,01,55,0.00
2021,12,19,01,56,0.00
2021,12,19,01,57,0.00
2021,12,19,01,58,0.00
2021,12,19,01,59,0.00
2021,12,19,02,00,0.00
2021,12,19,02,01,0.00
2021,12,19,02,02,0.00
2021,12,19,02,03,0.00
2021,12,19,02,04,0.00
2021,12,19,02,05,0.00
2021,12,19,02,06,0.00
2021,12,19,02,07,0.00
2021,12,19,02,08,0.00
2021,12,19,02,09,0.00
2021,12,19,02,10,0.00
2021,12,19,02,11,0.00
2021,12,19,02,12,0.00
2021,12,19,02,13,0.00
2021,12,19,02,14,0.00
2021,12,19,02,15,0.00
2021,12,19,02,16,0.00
2021,12,19,02,17,0.00
2021,12,19,02,18,0.00
2021,12,19,02,19,0.00
2021,12,19,02,20,0.00
2021,12,19,02,21,0.00
2021,12,19,02,22,0.00
2021,12,19,02,23,0.00
2021,12,19,02,24,0.00
2021,12,19,02,25,0.00
2021,12,19,02,26,0.00
2021,12,19,02,27,0.00
2021,12,19,02,28,0.00
2021,12,19,02,29,0.00
2021,12,19,02,30,0.00
2021,12,19,02,31,0.00
2021,12,19,02,32,0.00
2021,12,19,02,33,0.00
2021,12,19,02,34,0.00
2021,12,19,02,35,0.00
2021,12,19,02,36,0.00
2021,12,19,02,37,0.00
2021,12,19,02,38,0.00
2021,12,19,02,39,0.00
2021,12,19,02,40,0.00
2021,12,19,02,41,0.00
2021,12,19,02,42,0.00
2021,12,19,02,43,0.00
2021,12,19,02,44,0.00
2021,12,19,02,45,0.00
2021,12,19,02,46,0.00
2021,12,19,02,47,0.00
2021,12,19,02,48,0.00
2021,12,19,02,49,0.00
2021,12,19,02,50,0.00
2021,12,19,02,51,0.00
2021,12,19,02,52,0.00
2021,12,19,02,53,0.00
2021,12,19,02,54,0.00
2021,12,19,02,55,0.00
2021,12,19,02,56,0.00
2021,12,19,02,57,0.00
2021,12,19,02,58,0.00
2021,12,19,02,59,0.00
2021,12,19,03,00,0.00
2021,12,19,03,01,0.00
2021,12,19,03,02,0.00
2021,12,19,03,03,0.00
2021,12,19,03,04,0.00
2021,12,19,03,05,0.00
2021,12,19,03,06,0.00
2021,12,19,03,07,0.00
2021,12,19,03,08,0.00
2021,12,19,03,09,0.00
2021,12,19,03,10,0.00
2021,12,19,03,11,0.00
2021,12,19,03,12,0.00
2021,12,19,03,13,0.00
2021,12,19,03,14,0.00
2021,12,19,03,15,0.00
2021,12,19,03,16,0.00
2021,12,19,03,17,0.00
2021,12,19,03,18,0.00
2021,12,19,03,19,0.00
2021,12,19,03,20,0.00
2021,12,19,03,21,0.00
2021,12,19,03,22,0.00
2021,12,19,03,23,0.00
2021,12,19,03,24,0.00
2021,12,19,03,25,0.00
2021,12,19,03,26,0.00
2021,12,19,03,27,0.00
2021,12,19,03,28,0.00
2021,12,19,03,29,0.00
2021,12,19,03,30,0.00
2021,12,19,03,31,0.00
2021,12,19,03,32,0.00
2021,12,19,03,33,0.00
2021,12,19,03,34,0.00
2021,12,19,03,35,0.00
2021,12,19,03,36,0.00
2021,12,19,03,37,0.00
2021,12,19,03,38,0.00
2021,12,19,03,39,0.00
2021,12,19,03,40,0.00
2021,12,19,03,41,0.00
2021,12,19,03,42,0.00
2021,12,19,03,43,0.00
2021,12,19,03,44,0.00
2021,12,19,03,45,0.00
2021,12,19,03,46,0.00
2021,12,19,03,47,0.00
2021,12,19,03,48,0.00
2021,12,19,03,49,0.00
2021,12,19,03,50,0.00
2021,12,19,03,51,0.00
2021,12,19,03,52,0.00
2021,12,19,03,53,0.00
2021,12,19,03,54,0.00
2021,12,19,03,55,0.00
2021,12,19,03,56,0.00
2021,12,19,03,57,0.00
2021,12,19,03,58,0.00
2021,12,19,03,59,0.00
2021,12,19,04,00,0.00
2021,12,19,04,01,0.00
2021,12,19,04,02,0.00
2021,12,19,04,03,0.00
2021,12,19,04,04,0.00
2021,12,19,04,05,0.00
2021,12,19,04,06,0.00
2021,12,19,04,07,0.00
2021,12,19,04,08,0.00
2021,12,19,04,09,0.00
2021,12,19,04,10,0.00
2021,12,19,04,11,0.00
2021,12,19,04,12,0.00
2021,12,19,04,13,0.00
2021,12,19,04,14,0.00
2021,12,19,04,15,0.00
2021,12,19,04,16,0.00
2021,12,19,04,17,0.00
2021,12,19,04,18,0.00
2021,12,19,04,19,0.00
2021,12,19,04,20,0.00
2021,12,19,04,21,0.00
2021,12,19,04,22,0.00
2021,12,19,04,23,0.00
2021,12,19,04,24,0.00
2021,12,19,04,25,0.00
2021,12,19,04,26,0.00
2021,12,19,04,27,0.00
2021,12,19,04,28,0.00
2021,12,19,04,29,0.00
2021,12,19,04,30,0.00
2021,12,19,04,31,0.00
2021,12,19,04,32,0.00
2021,12,19,04,33,0.00
2021,12,19,04,34,0.00
2021,12,19,04,35,0.00
2021,12,19,04,36,0.00
2021,12,19,04,37,0.00
2021,12,19,04,38,0.00
2021,12,19,04,39,0.00
2021,12,19,04,40,0.00
2021,12,19,04,41,0.00
2021,12,19,04,42,0.00
2021,12,19,04,43,0.00
2021,12,19,04,44,0.00
2021,12,19,04,45,0.00
2021,12,19,04,46,0.00
2021,12,19,04,47,0.00
2021,12,19,04,48,0.00
2021,12,19,04,49,0.00
2021,12,19,04,50,0.00
2021,12,19,04,51,0.00
2021,12,19,04,52,0.00
2021,12,19,04,53,0.00
2021,12,19,04,54,0.00
2021,12,19,04,55,0.00
2021,12,19,04,56,0.00
2021,12,19,04,57,0.00
2021,12,19,04,58,0.00
2021,12,19,04,59,0.00
2021,12,19,05,00,0.00
2021,12,19,05,01,0.00
2021,12,19,05,02,0.00
2021,12,19,05,03,0.00
2021,12,19,05,04,0.00
2021,12,19,05,05,0.00
2021,12,19,05,06,0.00
2021,12,19,05,07,0.00
2021,12,19,05,08,0.00
2021,12,19,05,09,0.00
2021,12,19,05,10,0.00
2021,12,19,05,11,0.00
2021,12,19,05,12,0.00
2021,12,19,05,13,0.00
2021,12,19,05,14,0.00
2021,12,19,05,15,0.00
2021,12,19,05,16,0.00
2021,12,19,05,17,0.00
2021,12,19,05,18,0.00
2021,12,19,05,19,0.00
2021,12,19,05,20,0.00
2021,12,19,05,21,0.00
2021,12,19,05,22,0.00
2021,12,19,05,23,0.00
2021,12,19,05,24,0.00
2021,12,19,05,25,0.00
2021,12,19,05,26,0.00
2021,12,19,05,27,0.00
2021,12,19,05,28,0.00
2021,12,19,05,29,0.00
2021,12,19,05,30,0.00
2021,12,19,05,31,0.00
2021,12,19,05,32,0.00
2021,12,19,05,33,0.00
2021,12,19,05,34,0.00
2021,12,19,05,35,0.00
2021,12,19,05,36,0.00
2021,12,19,05,37,0.00
2021,12,19,05,38,0.00
2021,12,19,05,39,0.00
2021,12,19,05,40,0.00
2021,12,19,05,41,0.00
2021,12,19,05,42,0.00
2021,12,19,05,43,0.00
2021,12,19,05,44,0.00
2021,12,19,05,45,0.00
2021,12,19,05,46,0.00
2021,12,19,05,47,0.00
2021,12,19,05,48,0.00
2021,12,19,05,49,0.00
2021,12,19,05,50,0.00
2021,12,19,05,51,0.00
2021,12,19,05,52,0.00
2021,12,19,05,53,0.00
2021,12,19,05,54,0.00
2021,12,19,05,55,0.00
2021,12,19,05,56,0.00
2021,12,19,05,57,0.00
2021,12,19,05,58,0.00
2021,12,19,05,59,0.00
2021,12,19,06,00,0.00
2021,12,19,06,01,0.00
2021,12,19,06,02,0.00
2021,12,19,06,03,0.00
2021,12,19,06,04,0.00
2021,12,19,06,05,0.00
2021,12,19,06,06,0.00
2021,12,19,06,07,0.00
2021,12,19,06,08,0.00
2021,12,19,06,09,0.00
2021,12,19,06,10,0.00
2021,12,19,06,11,0.00
2021,12,19,06,12,0.00
2021,12,19,06,13,0.00
2021,12,19,06,14,0.00
2021,12,19,06,15,0.00
2021,12,19,06,16,0.00
2021,12,19,06,17,0.00
2021,12,19,06,18,0.00
2021,12,19,06,19,0.00
2021,12,19,06,20,0.00
2021,12,19,06,21,0.00
2021,12,19,06,22,0.00
2021,12,19,06,23,0.00
2021,12,19,06,24,0.00
2021,12,19,06,25,0.00
2021,12,19,06,26,0.00
2021,12,19,06,27,0.00
2021,12,19,06,28,0.00
2021,12,19,06,29,0.00
2021,12,19,06,30,0.00
2021,12,19,06,31,0.00
2021,12,19,06,32,0.00
2021,12,19,06,33,0.00
2021,12,19,06,34,0.00
2021,12,19,06,35,0.00
2021,12,19,06,36,0.00
2021,12,19,06,37,0.00
2021,12,19,06,38,0.00
2021,12,19,06,39,0.00
2021,12,19,06,40,0.00
2021,12,19,06,41,0.00
2021,12,19,06,42,0.00
2021,12,19,06,43,0.00
2021,12,19,06,44,0.00
2021,12,19,06,45,0.00
2021,12,19,06,46,0.00
2021,12,19,06,47,0.00
2021,12,19,06,48,0.00
2021,12,19,06,49,0.00
2021,12,19,06,50,0.00
2021,12,19,06,51,0.00
2021,12,19,06,52,0.00
2021,12,19,06,53,0.00
2021,12,19,06,54,0.00
2021,12,19,06,55,0.00
2021,12,19,06,56,0.00
2021,12,19,06,57,0.00
2021,12,19,06,58,0.00
2021,12,19,06,59,0.00
2021,12,19,07,00,0.00
2021,12,19,07,01,0.00
2021,12,19,07,02,0.00
2021,12,19,07,03,0.00
2021,12,19,07,04,0.00
2021,12,19,07,05,0.00
2021,12,19,07,06,0.00
2021,12,19,07,07,0.00
2021,12,19,07,08,0.00
2021,12,19,07,09,0.00
2021,12,19,07,10,0.00
2021,12,19,07,11,0.00
2021,12,19,07,12,0.00
2021,12,19,07,13,0.00
2021,12,19,07,14,0.00
2021,12,19,07,15,0.00
2021,12,19,07,16,0.00
2021,12,19,07,17,0.00
2021,12,19,07,18,0.00
2021,12,19,07,19,0.00
2021,12,19,07,20,0.00
2021,12,19,07,21,0.00
2021,12,19,07,22,0.00
2021,12,19,07,23,0.00
2021,12,19,07,24,0.00
2021,12,19,07,25,0.00
2021,12,19,07,26,0.00
2021,12,19,07,27,0.00
2021,12,19,07,28,0.00
2021,12,19,07,29,0.00
2021,12,19,07,30,0.00
2021,12,19,07,31,0.00
2021,12,19,07,32,0.00
2021,12,19,07,33,0.00
2021,12,19,07,34,0.00
2021,12,19,07,35,0.00
2021,12,19,07,36,0.00
2021,12,19,07,37,0.00
2021,12,19,07,38,0.00
2021,12,19,07,39,0.00
2021,12,19,07,40,0.00
2021,12,19,07,41,0.00
2021,12,19,07,42,0.00
2021,12,19,07,43,0.00
2021,12,19,07,44,0.00
2021,12,19,07,45,0.00
2021,12,19,07,46,0.00
2021,12,19,07,47,0.00
2021,12,19,07,48,0.00
2021,12,19,07,49,0.00
2021,12,19,07,50,0.00
2021,12,19,07,51,0.00
2021,12,19,07,52,0.00
2021,12,19,07,53,0.00
2021,12,19,07,54,0.00
2021,12,19,07,55,0.00
2021,12,19,07,56,0.00
2021,12,19,07,57,0.00
2021,12,19,07,58,0.00
2021,12,19,07,59,0.00
2021,12,19,08,00,0.00
2021,12,19,08,01,0.00
2021,12,19,08,02,0.00
2021,12,19,08,03,0.00
2021,12,19,08,04,0.00
2021,12,19,08,05,0.00
2021,12,19,08,06,0.00
2021,12,19,08,07,0.00
2021,12,19,08,08,0.00
2021,12,19,08,09,0.00
2021,12,19,08,10,0.00
2021,12,19,08,11,0.00
2021,12,19,08,12,0.00
2021,12,19,08,13,0.00
2021,12,19,08,14,0.00
2021,12,19,08,15,0.00
2021,12,19,08,16,0.00
2021,12,19,08,17,0.00
2021,12,19,08,18,0.00
2021,12,19,08,19,0.00
2021,12,19,08,20,0.00
2021,12,19,08,21,0.00
2021,12,19,08,22,0.00
2021,12,19,08,23,4.80
2021,12,19,08,24,5.00
2021,12,19,08,25,5.00
2021,12,19,08,26,5.00
2021,12,19,08,27,5.00
2021,12,19,08,28,5.00
2021,12,19,08,29,5.00
2021,12,19,08,30,5.00
2021,12,19,08,31,5.00
2021,12,19,08,32,6.10
2021,12,19,08,33,7.00
2021,12,19,08,34,7.00
2021,12,19,08,35,7.00
2021,12,19,08,36,7.00
2021,12,19,08,37,7.00
2021,12,19,08,38,7.00
2021,12,19,08,39,7.00
2021,12,19,08,40,7.30
2021,12,19,08,41,9.00
2021,12,19,08,42,9.00
2021,12,19,08,43,9.60
2021,12,19,08,44,11.00
2021,12,19,08,45,11.40
2021,12,19,08,46,12.00
2021,12,19,08,47,13.10
2021,12,19,08,48,14.00
2021,12,19,08,49,15.40
2021,12,19,08,50,16.00
2021,12,19,08,51,16.00
2021,12,19,08,52,16.00
2021,12,19,08,53,16.00
2021,12,19,08,54,16.00
2021,12,19,08,55,16.00
2021,12,19,08,56,16.00
2021,12,19,08,57,16.50
2021,12,19,08,58,17.30
2021,12,19,08,59,16.00
2021,12,19,09,00,16.00
2021,12,19,09,01,15.00
2021,12,19,09,02,15.10
2021,12,19,09,03,17.20
2021,12,19,09,04,18.70
2021,12,19,09,05,20.50
2021,12,19,09,06,22.60
2021,12,19,09,07,21.30
2021,12,19,09,08,21.00
2021,12,19,09,09,25.10
2021,12,19,09,10,28.00
2021,12,19,09,11,28.40
2021,12,19,09,12,29.50
2021,12,19,09,13,27.00
2021,12,19,09,14,24.20
2021,12,19,09,15,23.90
2021,12,19,09,16,25.00
2021,12,19,09,17,25.00
2021,12,19,09,18,25.00
2021,12,19,09,19,25.00
2021,12,19,09,20,23.50
2021,12,19,09,21,21.30
2021,12,19,09,22,19.30
2021,12,19,09,23,20.90
2021,12,19,09,24,20.90
2021,12,19,09,25,19.00
2021,12,19,09,26,19.00
2021,12,19,09,27,19.50
2021,12,19,09,28,21.00
2021,12,19,09,29,21.00
2021,12,19,09,30,21.00
2021,12,19,09,31,20.00
2021,12,19,09,32,20.10
2021,12,19,09,33,21.00
2021,12,19,09,34,19.60
2021,12,19,09,35,20.50
2021,12,19,09,36,22.60
2021,12,19,09,37,23.00
2021,12,19,09,38,23.00
2021,12,19,09,39,25.00
2021,12,19,09,40,25.90
2021,12,19,09,41,25.00
2021,12,19,09,42,25.20
2021,12,19,09,43,26.60
2021,12,19,09,44,28.00
2021,12,19,09,45,27.10
2021,12,19,09,46,26.00
2021,12,19,09,47,27.10
2021,12,19,09,48,28.00
2021,12,19,09,49,29.40
2021,12,19,09,50,32.30
2021,12,19,09,51,32.20
2021,12,19,09,52,32.00
2021,12,19,09,53,32.00
2021,12,19,09,54,32.00
2021,12,19,09,55,33.30
2021,12,19,09,56,35.80
2021,12,19,09,57,40.20
2021,12,19,09,58,44.90
2021,12,19,09,59,46.60
2021,12,19,10,00,46.00
2021,12,19,10,01,47.60
2021,12,19,10,02,47.90
2021,12,19,10,03,42.70
2021,12,19,10,04,39.30
2021,12,19,10,05,39.00
2021,12,19,10,06,39.80
2021,12,19,10,07,41.70
2021,12,19,10,08,40.10
2021,12,19,10,09,40.10
2021,12,19,10,10,42.00
2021,12,19,10,11,42.00
2021,12,19,10,12,42.80
2021,12,19,10,13,47.00
2021,12,19,10,14,50.80
2021,12,19,10,15,54.90
2021,12,19,10,16,58.90
2021,12,19,10,17,62.50
2021,12,19,10,18,64.20
2021,12,19,10,19,65.00
2021,12,19,10,20,65.00
2021,12,19,10,21,66.60
2021,12,19,10,22,65.30
2021,12,19,10,23,63.10
2021,12,19,10,24,63.20
2021,12,19,10,25,67.30
2021,12,19,10,26,69.20
2021,12,19,10,27,70.50
2021,12,19,10,28,72.00
2021,12,19,10,29,72.70
2021,12,19,10,30,74.00
2021,12,19,10,31,72.90
2021,12,19,10,32,72.00
2021,12,19,10,33,70.80
2021,12,19,10,34,71.30
2021,12,19,10,35,72.00
2021,12,19,10,36,73.60
2021,12,19,10,37,74.00
2021,12,19,10,38,75.90
2021,12,19,10,39,79.10
2021,12,19,10,40,81.00
2021,12,19,10,41,80.60
2021,12,19,10,42,79.50
2021,12,19,10,43,81.90
2021,12,19,10,44,85.50
2021,12,19,10,45,88.90
2021,12,19,10,46,90.50
2021,12,19,10,47,93.10
2021,12,19,10,48,95.00
2021,12,19,10,49,93.70
2021,12,19,10,50,93.00
2021,12,19,10,51,94.60
2021,12,19,10,52,97.60
2021,12,19,10,53,98.00
2021,12,19,10,54,98.00
2021,12,19,10,55,97.00
2021,12,19,10,56,97.00
2021,12,19,10,57,98.20
2021,12,19,10,58,103.60
2021,12,19,10,59,107.80
2021,12,19,11,00,109.00
2021,12,19,11,01,109.00
2021,12,19,11,02,111.20
2021,12,19,11,03,113.60
2021,12,19,11,04,112.00
2021,12,19,11,05,109.50
2021,12,19,11,06,107.40
2021,12,19,11,07,105.20
2021,12,19,11,08,98.30
2021,12,19,11,09,89.90
2021,12,19,11,10,88.00
2021,12,19,11,11,88.00
2021,12,19,11,12,87.00
2021,12,19,11,13,83.00
2021,12,19,11,14,84.20
2021,12,19,11,15,96.80
2021,12,19,11,16,109.00
2021,12,19,11,17,112.70
2021,12,19,11,18,110.90
2021,12,19,11,19,104.10
2021,12,19,11,20,92.90
2021,12,19,11,21,86.80
2021,12,19,11,22,87.70
2021,12,19,11,23,89.90
2021,12,19,11,24,95.40
2021,12,19,11,25,104.90
2021,12,19,11,26,114.50
2021,12,19,11,27,131.50
2021,12,19,11,28,156.30
2021,12,19,11,29,140.10
2021,12,19,11,30,127.60
2021,12,19,11,31,110.20
2021,12,19,11,32,106.10
2021,12,19,11,33,133.00
2021,12,19,11,34,136.00
2021,12,19,11,35,122.40
2021,12,19,11,36,120.00
2021,12,19,11,37,98.60
2021,12,19,11,38,155.90
2021,12,19,11,39,90.80
2021,12,19,11,40,91.30
2021,12,19,11,41,138.00
2021,12,19,11,42,175.90
2021,12,19,11,43,141.60
2021,12,19,11,44,175.20
2021,12,19,11,45,126.00
2021,12,19,11,46,115.30
2021,12,19,11,47,118.00
2021,12,19,11,48,147.20
2021,12,19,11,49,229.20
2021,12,19,11,50,200.10
2021,12,19,11,51,209.10
2021,12,19,11,52,181.20
2021,12,19,11,53,180.80
2021,12,19,11,54,214.00
2021,12,19,11,55,197.20
2021,12,19,11,56,93.40
2021,12,19,11,57,107.00
2021,12,19,11,58,107.00
2021,12,19,11,59,127.70
2021,12,19,12,00,157.40
2021,12,19,12,01,142.00
2021,12,19,12,02,129.90
2021,12,19,12,03,126.00
2021,12,19,12,04,132.70
2021,12,19,12,05,107.80
2021,12,19,12,06,102.90
2021,12,19,12,07,108.30
2021,12,19,12,08,117.10
2021,12,19,12,09,130.40
2021,12,19,12,10,138.60
2021,12,19,12,11,135.00
2021,12,19,12,12,136.40
2021,12,19,12,13,141.00
2021,12,19,12,14,139.50
2021,12,19,12,15,140.00
2021,12,19,12,16,147.30
2021,12,19,12,17,153.70
2021,12,19,12,18,155.40
2021,12,19,12,19,165.40
2021,12,19,12,20,159.00
2021,12,19,12,21,160.70
2021,12,19,12,22,160.30
2021,12,19,12,23,156.20
2021,12,19,12,24,207.00
2021,12,19,12,25,227.50
2021,12,19,12,26,358.70
2021,12,19,12,27,368.40
2021,12,19,12,28,374.00
2021,12,19,12,29,369.00
2021,12,19,12,30,263.60
2021,12,19,12,31,118.70
2021,12,19,12,32,117.40
2021,12,19,12,33,127.40
2021,12,19,12,34,147.30
2021,12,19,12,35,160.70
2021,12,19,12,36,150.90
2021,12,19,12,37,136.00
2021,12,19,12,38,127.30
2021,12,19,12,39,134.20
2021,12,19,12,40,139.20
2021,12,19,12,41,141.00
2021,12,19,12,42,141.00
2021,12,19,12,43,141.00
2021,12,19,12,44,141.40
2021,12,19,12,45,142.90
2021,12,19,12,46,145.00
2021,12,19,12,47,147.10
2021,12,19,12,48,148.60
2021,12,19,12,49,150.30
2021,12,19,12,50,148.80
2021,12,19,12,51,146.40
2021,12,19,12,52,142.50
2021,12,19,12,53,142.00
2021,12,19,12,54,144.00
2021,12,19,12,55,144.00
2021,12,19,12,56,144.40
2021,12,19,12,57,146.00
2021,12,19,12,58,146.60
2021,12,19,12,59,148.00
2021,12,19,13,00,146.30
2021,12,19,13,01,140.90
2021,12,19,13,02,135.40
2021,12,19,13,03,132.80
2021,12,19,13,04,132.00
2021,12,19,13,05,133.50
2021,12,19,13,06,134.00
2021,12,19,13,07,134.90
2021,12,19,13,08,136.80
2021,12,19,13,09,134.80
2021,12,19,13,10,129.60
2021,12,19,13,11,127.00
2021,12,19,13,12,127.00
2021,12,19,13,13,127.00
2021,12,19,13,14,127.00
2021,12,19,13,15,127.00
2021,12,19,13,16,126.00
2021,12,19,13,17,125.00
2021,12,19,13,18,125.00
2021,12,19,13,19,126.30
2021,12,19,13,20,125.50
2021,12,19,13,21,121.80
2021,12,19,13,22,116.50
2021,12,19,13,23,114.10
2021,12,19,13,24,108.60
2021,12,19,13,25,98.80
2021,12,19,13,26,89.90
2021,12,19,13,27,82.80
2021,12,19,13,28,78.00
2021,12,19,13,29,75.20
2021,12,19,13,30,75.30
2021,12,19,13,31,79.90
2021,12,19,13,32,97.90
2021,12,19,13,33,111.50
2021,12,19,13,34,117.70
2021,12,19,13,35,120.80
2021,12,19,13,36,189.80
2021,12,19,13,37,207.00
2021,12,19,13,38,258.80
2021,12,19,13,39,257.00
2021,12,19,13,40,256.40
2021,12,19,13,41,250.00
2021,12,19,13,42,249.60
2021,12,19,13,43,246.90
2021,12,19,13,44,244.80
2021,12,19,13,45,243.00
2021,12,19,13,46,229.00
2021,12,19,13,47,218.00
2021,12,19,13,48,216.80
2021,12,19,13,49,204.40
2021,12,19,13,50,199.00
2021,12,19,13,51,199.00
2021,12,19,13,52,175.90
2021,12,19,13,53,162.90
2021,12,19,13,54,76.00
2021,12,19,13,55,93.20
2021,12,19,13,56,202.80
2021,12,19,13,57,206.70
2021,12,19,13,58,208.00
2021,12,19,13,59,206.40
2021,12,19,14,00,207.90
2021,12,19,14,01,210.90
2021,12,19,14,02,213.00
2021,12,19,14,03,213.60
2021,12,19,14,04,201.30
2021,12,19,14,05,195.00
2021,12,19,14,06,150.20
2021,12,19,14,07,102.70
2021,12,19,14,08,148.40
2021,12,19,14,09,239.40
2021,12,19,14,10,241.60
2021,12,19,14,11,225.20
2021,12,19,14,12,209.20
2021,12,19,14,13,156.40
2021,12,19,14,14,112.90
2021,12,19,14,15,151.00
2021,12,19,14,16,143.00
2021,12,19,14,17,114.10
2021,12,19,14,18,109.00
2021,12,19,14,19,181.70
2021,12,19,14,20,209.60
2021,12,19,14,21,201.40
2021,12,19,14,22,195.70
2021,12,19,14,23,190.50
2021,12,19,14,24,185.90
2021,12,19,14,25,182.80
2021,12,19,14,26,180.60
2021,12,19,14,27,180.70
2021,12,19,14,28,186.00
2021,12,19,14,29,184.90
2021,12,19,14,30,180.90
2021,12,19,14,31,174.70
2021,12,19,14,32,166.60
2021,12,19,14,33,161.10
2021,12,19,14,34,157.30
2021,12,19,14,35,153.80
2021,12,19,14,36,151.40
2021,12,19,14,37,151.00
2021,12,19,14,38,148.10
2021,12,19,14,39,143.90
2021,12,19,14,40,138.70
2021,12,19,14,41,124.60
2021,12,19,14,42,126.80
2021,12,19,14,43,137.90
2021,12,19,14,44,133.90
2021,12,19,14,45,131.10
2021,12,19,14,46,129.00
2021,12,19,14,47,127.50
2021,12,19,14,48,125.80
2021,12,19,14,49,125.00
2021,12,19,14,50,119.70
2021,12,19,14,51,119.60
2021,12,19,14,52,116.50
2021,12,19,14,53,114.10
2021,12,19,14,54,112.90
2021,12,19,14,55,110.70
2021,12,19,14,56,108.60
2021,12,19,14,57,106.50
2021,12,19,14,58,104.70
2021,12,19,14,59,103.20
2021,12,19,15,00,101.10
2021,12,19,15,01,99.00
2021,12,19,15,02,97.40
2021,12,19,15,03,95.80
2021,12,19,15,04,93.60
2021,12,19,15,05,91.50
2021,12,19,15,06,90.20
2021,12,19,15,07,88.30
2021,12,19,15,08,86.10
2021,12,19,15,09,84.00
2021,12,19,15,10,82.80
2021,12,19,15,11,80.60
2021,12,19,15,12,78.50
2021,12,19,15,13,76.70
2021,12,19,15,14,75.30
2021,12,19,15,15,74.00
2021,12,19,15,16,73.00
2021,12,19,15,17,70.90
2021,12,19,15,18,68.10
2021,12,19,15,19,62.30
2021,12,19,15,20,33.60
2021,12,19,15,21,23.00
2021,12,19,15,22,24.80
2021,12,19,15,23,25.00
2021,12,19,15,24,23.00
2021,12,19,15,25,22.80
2021,12,19,15,26,21.00
2021,12,19,15,27,21.00
2021,12,19,15,28,21.00
2021,12,19,15,29,21.00
2021,12,19,15,30,20.10
2021,12,19,15,31,19.00
2021,12,19,15,32,19.00
2021,12,19,15,33,19.00
2021,12,19,15,34,19.00
2021,12,19,15,35,19.00
2021,12,19,15,36,19.00
2021,12,19,15,37,19.00
2021,12,19,15,38,19.00
2021,12,19,15,39,18.00
2021,12,19,15,40,18.00
2021,12,19,15,41,18.00
2021,12,19,15,42,18.00
2021,12,19,15,43,18.00
2021,12,19,15,44,18.00
2021,12,19,15,45,17.10
2021,12,19,15,46,16.00
2021,12,19,15,47,16.00
2021,12,19,15,48,16.00
2021,12,19,15,49,14.70
2021,12,19,15,50,14.00
2021,12,19,15,51,14.00
2021,12,19,15,52,14.00
2021,12,19,15,53,12.20
2021,12,19,15,54,12.00
2021,12,19,15,55,12.00
2021,12,19,15,56,12.00
2021,12,19,15,57,12.00
2021,12,19,15,58,12.00
2021,12,19,15,59,12.00
2021,12,19,16,00,11.60
2021,12,19,16,01,11.00
2021,12,19,16,02,11.00
2021,12,19,16,03,11.00
2021,12,19,16,04,11.00
2021,12,19,16,05,11.00
2021,12,19,16,06,9.40
2021,12,19,16,07,9.00
2021,12,19,16,08,9.00
2021,12,19,16,09,9.00
2021,12,19,16,10,9.00
2021,12,19,16,11,8.60
2021,12,19,16,12,7.00
2021,12,19,16,13,7.00
2021,12,19,16,14,7.00
2021,12,19,16,15,7.00
2021,12,19,16,16,7.00
2021,12,19,16,17,7.00
2021,12,19,16,18,5.80
2021,12,19,16,19,5.00
2021,12,19,16,20,5.00
2021,12,19,16,21,5.00
2021,12,19,16,22,5.00
2021,12,19,16,23,5.00
2021,12,19,16,24,4.80
2021,12,19,16,25,0.00
2021,12,19,16,26,0.00
2021,12,19,16,27,0.00
2021,12,19,16,28,0.00
2021,12,19,16,29,0.00
2021,12,19,16,30,0.00
2021,12,19,16,31,0.00
2021,12,19,16,32,0.00
2021,12,19,16,33,0.00
2021,12,19,16,34,0.00
2021,12,19,16,35,0.00
2021,12,19,16,36,0.00
2021,12,19,16,37,0.00
2021,12,19,16,38,0.00
2021,12,19,16,39,0.00
2021,12,19,16,40,0.00
2021,12,19,16,41,0.00
2021,12,19,16,42,0.00
2021,12,19,16,43,0.00
2021,12,19,16,44,0.00
2021,12,19,16,45,0.00
2021,12,19,16,46,0.00
2021,12,19,16,47,0.00
2021,12,19,16,48,0.00
2021,12,19,16,49,0.00
2021,12,19,16,50,0.00
2021,12,19,16,51,0.00
2021,12,19,16,52,0.00
2021,12,19,16,53,0.00
2021,12,19,16,54,0.00
2021,12,19,16,55,0.00
2021,12,19,16,56,0.00
2021,12,19,16,57,0.00
2021,12,19,16,58,0.00
2021,12,19,16,59,0.00
2021,12,19,17,00,0.00
2021,12,19,17,01,0.00
2021,12,19,17,02,0.00
2021,12,19,17,03,0.00
2021,12,19,17,04,0.00
2021,12,19,17,05,0.00
2021,12,19,17,06,0.00
2021,12,19,17,07,0.00
2021,12,19,17,08,0.00
2021,12,19,17,09,0.00
2021,12,19,17,10,0.00
2021,12,19,17,11,0.00
2021,12,19,17,12,0.00
2021,12,19,17,13,0.00
2021,12,19,17,14,0.00
2021,12,19,17,15,0.00
2021,12,19,17,16,0.00
2021,12,19,17,17,0.00
2021,12,19,17,18,0.00
2021,12,19,17,19,0.00
2021,12,19,17,20,0.00
2021,12,19,17,21,0.00
2021,12,19,17,22,0.00
2021,12,19,17,23,0.00
2021,12,19,17,24,0.00
2021,12,19,17,25,0.00
2021,12,19,17,26,0.00
2021,12,19,17,27,0.00
2021,12,19,17,28,0.00
2021,12,19,17,29,0.00
2021,12,19,17,30,0.00
2021,12,19,17,31,0.00
2021,12,19,17,32,0.00
2021,12,19,17,33,0.00
2021,12,19,17,34,0.00
2021,12,19,17,35,0.00
2021,12,19,17,36,0.00